| time (UTC) | temp C | wind direction | speed KPH | gust KPH | rain 1hr cm | rain 24hr cm | rain mn cm | humidity % | barometer mb |
| 20260504081523 | 3 | 250 | 27.4 | 59.5 | 0.23 | 2.24 | 0.71 | 97 | 980.3 |
| 20260504060120 | 4 | 221 | 8.0 | 14.5 | 0.15 | 1.83 | 0.30 | 99 | 976.6 |
| 20260504050106 | 3 | 281 | 6.4 | 12.9 | 0.05 | 1.68 | 0.15 | 100 | 974.9 |
| 20260504044550 | 3 | 274 | 6.4 | 12.9 | 0.10 | 1.68 | 0.15 | 100 | 974.5 |
| 20260504043056 | 3 | 294 | 4.8 | 11.3 | 0.10 | 1.65 | 0.13 | 99 | 974.3 |
| 20260504041548 | 3 | 304 | 3.2 | 8.0 | 0.10 | 1.63 | 0.10 | 99 | 973.7 |
| 20260504040047 | 3 | 32 | 1.6 | 4.8 | 0.08 | 1.60 | 0.08 | 99 | 973.6 |
| 20260504034544 | 3 | 34 | 0.0 | 9.7 | 0.08 | 1.57 | 0.05 | 99 | 973.8 |
| 20260504033042 | 3 | 88 | 16.1 | 27.4 | 0.05 | 1.55 | 0.03 | 99 | 974.2 |
| 20260504031538 | 3 | 25 | 12.9 | 25.7 | 0.05 | 1.52 | 0.00 | 99 | 974.7 |
| 20260504030034 | 4 | 95 | 16.1 | 30.6 | 0.05 | 1.52 | 0.00 | 98 | 975.0 |
| 20260504024531 | 4 | 85 | 22.5 | 45.1 | 0.03 | 1.50 | 1.50 | 98 | 975.9 |
| 20260504023028 | 4 | 82 | 19.3 | 40.2 | 0.03 | 1.50 | 1.50 | 98 | 976.9 |
| 20260504021527 | 5 | 88 | 20.9 | 37.0 | 0.00 | 1.45 | 1.45 | 97 | 977.7 |
| 20260504020022 | 5 | 96 | 20.9 | 37.0 | 0.03 | 1.45 | 1.45 | 98 | 978.5 |
| 20260504014538 | 5 | 89 | 17.7 | 35.4 | 0.05 | 1.45 | 1.45 | 99 | 979.1 |
| 20260504013016 | 5 | 91 | 20.9 | 40.2 | 0.08 | 1.45 | 1.45 | 100 | 979.7 |
| 20260504011513 | 5 | 101 | 24.1 | 43.5 | 0.10 | 1.45 | 1.45 | 100 | 980.8 |
| 20260504010010 | 5 | 55 | 19.3 | 45.1 | 0.13 | 1.42 | 1.42 | 99 | 981.3 |
| 20260504004507 | 5 | 35 | 19.3 | 35.4 | 0.15 | 1.42 | 1.42 | 100 | 982.1 |
| 20260504003005 | 5 | 28 | 20.9 | 37.0 | 0.15 | 1.40 | 1.40 | 99 | 983.0 |
| 20260504001604 | 5 | 69 | 24.1 | 40.2 | 0.18 | 1.37 | 1.37 | 100 | 983.6 |
| 20260504000101 | 5 | 76 | 22.5 | 35.4 | 0.18 | 1.32 | 1.32 | 100 | 984.3 |
| 20260503234557 | 4 | 54 | 16.1 | 35.4 | 0.30 | 1.27 | 1.27 | 99 | 984.7 |
| 20260503233101 | 4 | 42 | 16.1 | 32.2 | 0.36 | 1.24 | 1.24 | 99 | 985.8 |
| 20260503231550 | 3 | 13 | 19.3 | 33.8 | 0.43 | 1.19 | 1.19 | 99 | 986.7 |
| 20260503230048 | 3 | 45 | 11.3 | 24.1 | 0.46 | 1.14 | 1.14 | 99 | 987.7 |
| 20260503224546 | 3 | 28 | 20.9 | 32.2 | 0.33 | 0.97 | 0.97 | 99 | 988.6 |
| 20260503223043 | 3 | 70 | 16.1 | 33.8 | 0.36 | 0.86 | 0.86 | 99 | 989.5 |
| 20260503221547 | 3 | 75 | 17.7 | 33.8 | 0.36 | 0.76 | 0.76 | 99 | 990.7 |
| 20260503220035 | 3 | 63 | 14.5 | 29.0 | 0.36 | 0.69 | 0.69 | 98 | 991.6 |
| 20260503214533 | 3 | 82 | 19.3 | 32.2 | 0.38 | 0.64 | 0.64 | 98 | 992.3 |
| 20260503213032 | 3 | 38 | 12.9 | 37.0 | 0.28 | 0.51 | 0.51 | 98 | 993.5 |
| 20260503211525 | 4 | 59 | 20.9 | 40.2 | 0.20 | 0.41 | 0.41 | 98 | 994.1 |
| 20260503210039 | 4 | 94 | 17.7 | 30.6 | 0.15 | 0.33 | 0.33 | 98 | 994.3 |
| 20260503204525 | 5 | 55 | 22.5 | 41.8 | 0.10 | 0.25 | 0.25 | 97 | 994.4 |
| 20260503203020 | 5 | 59 | 22.5 | 41.8 | 0.10 | 0.23 | 0.23 | 97 | 995.0 |
| 20260503201521 | 5 | 73 | 17.7 | 41.8 | 0.13 | 0.20 | 0.20 | 96 | 996.0 |
| 20260503200017 | 6 | 111 | 14.5 | 30.6 | 0.13 | 0.18 | 0.18 | 96 | 996.2 |
| 20260503194515 | 6 | 68 | 11.3 | 22.5 | 0.10 | 0.15 | 0.15 | 96 | 996.5 |
| 20260503193011 | 6 | 56 | 14.5 | 32.2 | 0.08 | 0.13 | 0.13 | 94 | 997.5 |
| 20260503191507 | 6 | 88 | 12.9 | 27.4 | 0.03 | 0.08 | 0.08 | 94 | 998.6 |
| 20260503190005 | 6 | 74 | 19.3 | 37.0 | 0.03 | 0.05 | 0.05 | 93 | 998.4 |
| 20260503183107 | 6 | 71 | 14.5 | 29.0 | 0.05 | 0.05 | 0.05 | 93 | 1000.4 |
| 20260503181557 | 6 | 56 | 11.3 | 24.1 | 0.05 | 0.05 | 0.05 | 91 | 1000.9 |
| 20260503180106 | 6 | 57 | 12.9 | 24.1 | 0.03 | 0.03 | 0.03 | 88 | 1001.8 |
| 20260503174550 | 7 | 56 | 9.7 | 19.3 | 0.00 | 0.00 | 0.00 | 82 | 1004.3 |
| 20260503173133 | 7 | 108 | 12.9 | 20.9 | 0.00 | 0.00 | 0.00 | 81 | 1005.2 |
| 20260503171547 | 8 | 104 | 14.5 | 24.1 | 0.00 | 0.00 | 0.00 | 81 | 1005.9 |